Regional Weather Roundup
Issued by NWS Northern Indiana

Home | Current Version | Previous Version | Graphics & Text | Print | Product List | Glossary On
Versions: 1 2 3 4 5 6 7 8 9 10 11 12 13 14 15 16 17 18 19 20 21 22 23 24 25 26 27 28 29 30 31 32 33 34 35 36 37 38 39 40 41 42 43 44 45 46 47 48 49 50
851
ASUS43 KIWX 192310
RWRIWX

KIWX WEATHER ROUNDUP
NATIONAL WEATHER SERVICE NORTHERN INDIANA
700 PM EDT TUE SEP 19 2017

NOTE: "FAIR" INDICATES FEW OR NO CLOUDS BELOW 12,000 FEET WITH NO
SIGNIFICANT WEATHER AND/OR OBSTRUCTIONS TO VISIBILITY.

* THESE STATIONS ARE NOT UNDER NWS QUALITY CONTROL. THEY ALSO MAY NOT
  REPORT WEATHER SUCH AS PRECIPITATION OR FOG.

INZ001>027-200000-
NORTHERN INDIANA

CITY           SKY/WX    TMP DP  RH WIND       PRES   REMARKS
GARY*          PTCLDY    72  66  83 NE12      29.92F
VALPARAISO     CLEAR     75  67  76 N3        29.92S
MICHIGAN CITY* CLEAR     70  64  83 NE6       29.93S
LAPORTE*       PTCLDY    72  66  80 N7        29.93S
KNOX*          CLEAR     73  66  78 NE6       29.91S
SOUTH BEND     CLOUDY    71  65  81 E3        29.93S
ELKHART*       PTCLDY    72  64  78 E6        29.92F
GOSHEN         MOCLDY    72  64  76 NE5       29.92S
MONTICELLO*    CLEAR     75  65  70 CALM      29.90S
LOGANSPORT*    CLEAR     73  64  73 CALM      29.92S
WARSAW*        CLOUDY    72  68  88 NW6       29.92S
AUBURN*        CLOUDY    68  64  88 E3        29.92F
FORT WAYNE     CLOUDY    72  68  87 SE5       29.92S
HUNTINGTON*    CLOUDY    74  71  89 CALM      29.92R
PERU/GRISSOM   PTCLDY    76  64  67 NW7       29.91R

$$
INZ028>050-200000-
CENTRAL INDIANA

CITY           SKY/WX    TMP DP  RH WIND       PRES   REMARKS
LAFAYETTE      CLEAR     77  66  68 N3        29.90S
KOKOMO*        PTCLDY    77  65  66 NW7       29.93R
MUNCIE*        CLOUDY    73  66  78 CALM      29.93R
INDIANAPOLIS   MOCLDY    78  65  63 CALM      29.91R

$$
MIZ043>046-050>051-056>058-064>065-071>073-077>080-200000-
SOUTHWEST LOWER MICHIGAN

CITY           SKY/WX    TMP DP  RH WIND       PRES   REMARKS
BATTLE CREEK   CLOUDY    70  65  84 NE8       29.95S
BENTON HARBOR  PTCLDY    75  63  66 E6        29.92S
COLDWATER*     CLOUDY    69  69  99 E5        29.93S
HILLSDALE*     CLOUDY    68  64  88 SE10      29.94S
HOLLAND        PTCLDY    75  61  61 E8        29.94S
GRAND RAPIDS   CLOUDY    73  61  65 E8        29.95S
KALAMAZOO      CLOUDY    71  62  73 NE5       29.94S
STURGIS*       CLOUDY    69  66  91 N3        29.93S
THREE RIVERS*  CLOUDY    70  66  89 CALM      29.94S

$$
OHZ001>008-015>018-024>025-200000-
NORTHWEST OHIO

CITY           SKY/WX    TMP DP  RH WIND       PRES   REMARKS
WAUSEON*       CLOUDY    70  70 100 E5        29.93S
DEFIANCE       LGT RAIN  69  67  93 CALM      29.92F
FINDLAY        MOCLDY    73  68  84 SE5       29.93S
TOLEDO EXPRESS CLOUDY    70  32  24 NE7       29.92S FOG
TOLEDO METCALF LGT RAIN  70  68  93 E9        29.94F FOG
LIMA           CLOUDY    72  68  87 S7        29.93S

$$
AND FOR LAKE MICHIGAN COASTAL AND OPEN LAKE BUOY OBSERVATIONS

STATION/POSITION TEMP    WIND        PRES    VSBY  WAVE
                 AIR SEA DIR/SP/G                  HT/PER
                 (F)     (DEG/KT/KT) (MB)    (MI)  (FT/S)
CALUMET HARBOR    69      30/  8/ 12 1012.6F
MICHIGAN CITY     68      20/ 12/ 13   N/A
BURNS HARBOR      69      30/ 11/ 12 1013.5F
SAINT JOSEPH      70      10/  5/  6 1013.5
SOUTH LAKE BUOY   68 69   20/  6/  6 1013.8R         1/ 3
4 MI NW BRIDGMAN  69 69   40/  6/  8 1013.1          1/ 2
MICHIGAN CITY     69 69   40/ 12/ 14   N/A           2/ 2

$$
&&




USA.gov is the U.S. government's official web portal to all federal, state and local government web resources and services.